,,Stat6,,Stat2,,Stat8,,Stat9,,Stat10,,Wind1,,Wind1
time,status,PA1M_AVG,status,PR1M_SUM,status,RH1M_AVG,status,SR1M_AVG,status,TA1M_AVG,status,W1dAve1m,status,W1sAve1m
2009-05-19, 00:00:00,VALID,916.914,VALID,0,VALID,100,VALID,-0.0339617,VALID,18.2789,VALID,135,VALID,0
2009-05-19, 00:01:00,VALID,916.914,VALID,0,VALID,100,VALID,-0.0509425,VALID,18.2757,VALID,133,VALID,0
2009-05-19, 00:02:00,VALID,916.902,VALID,0,VALID,100,VALID,-0.0169808,VALID,18.2954,VALID,135,VALID,0
2009-05-19, 00:03:00,VALID,916.893,VALID,0,VALID,100,VALID,-0.0509425,VALID,18.2854,VALID,137,VALID,0
2009-05-19, 00:04:00,VALID,916.896,VALID,0,VALID,100,VALID,-0.0169808,VALID,18.2887,VALID,137,VALID,0
2009-05-19, 00:05:00,VALID,916.887,VALID,0,VALID,100,VALID,-0.0849042,VALID,18.2889,VALID,138,VALID,0.047619
2009-05-19, 00:06:00,VALID,916.879,VALID,0,VALID,99.9863,VALID,0,VALID,18.3019,VALID,129,VALID,0.00305707
2009-05-19, 00:07:00,VALID,916.869,VALID,0,VALID,99.868,VALID,-0.0679233,VALID,18.2928,VALID,124,VALID,0
2009-05-19, 00:08:00,VALID,916.847,VALID,0,VALID,99.7599,VALID,-0.0849042,VALID,18.2692,VALID,124,VALID,0
2009-05-19, 00:09:00,VALID,916.825,VALID,0,VALID,99.559,VALID,-0.0679233,VALID,18.2532,VALID,122,VALID,0
2009-05-19, 00:10:00,VALID,916.826,VALID,0,VALID,99.3517,VALID,-0.0509425,VALID,18.2074,VALID,120,VALID,0
2009-05-19, 00:11:00,VALID,916.812,VALID,0,VALID,99.1,VALID,-0.0679233,VALID,18.1691,VALID,110,VALID,0
2009-05-19, 00:12:00,VALID,916.813,VALID,0,VALID,98.9855,VALID,-0.0849042,VALID,18.1242,VALID,107,VALID,0
2009-05-19, 00:13:00,VALID,916.798,VALID,0,VALID,98.8049,VALID,-0.0339617,VALID,18.1034,VALID,113,VALID,0.000381098
2009-05-19, 00:14:00,VALID,916.801,VALID,0,VALID,98.5277,VALID,-0.101885,VALID,18.1103,VALID,112,VALID,0.00181686
2009-05-19, 00:15:00,VALID,916.798,VALID,0,VALID,98.2493,VALID,-0.0509425,VALID,18.0904,VALID,120,VALID,0.0520198
2009-05-19, 00:16:00,VALID,916.792,VALID,0,VALID,97.9619,VALID,-0.0509425,VALID,18.0878,VALID,128,VALID,0
2009-05-19, 00:17:00,VALID,916.774,VALID,0,VALID,97.6554,VALID,-0.0509425,VALID,18.0612,VALID,130,VALID,0
2009-05-19, 00:18:00,VALID,916.756,VALID,0,VALID,97.4634,VALID,-0.0509425,VALID,18.0454,VALID,131,VALID,0
2009-05-19, 00:19:00,VALID,916.74,VALID,0,VALID,97.457,VALID,-0.0169808,VALID,18.0128,VALID,132,VALID,0
2009-05-19, 00:20:00,VALID,916.721,VALID,0,VALID,97.4736,VALID,-0.0339617,VALID,17.9871,VALID,135,VALID,0
2009-05-19, 00:21:00,VALID,916.705,VALID,0,VALID,97.4405,VALID,-0.0679233,VALID,17.9773,VALID,135,VALID,0
2009-05-19, 00:22:00,VALID,916.687,VALID,0,VALID,97.3884,VALID,-0.0679233,VALID,17.9509,VALID,136,VALID,0
2009-05-19, 00:23:00,VALID,916.663,VALID,0,VALID,97.3172,VALID,-0.0169808,VALID,17.9285,VALID,136,VALID,0
2009-05-19, 00:24:00,VALID,916.647,VALID,0,VALID,97.2625,VALID,-0.0339617,VALID,17.9349,VALID,136,VALID,0
2009-05-19, 00:25:00,VALID,916.621,VALID,0,VALID,97.1468,VALID,-0.0679233,VALID,17.9285,VALID,136,VALID,0
2009-05-19, 00:26:00,VALID,916.599,VALID,0,VALID,97.0972,VALID,-0.0169808,VALID,17.8991,VALID,136,VALID,0
2009-05-19, 00:27:00,VALID,916.568,VALID,0,VALID,96.9904,VALID,-0.0169808,VALID,17.8666,VALID,136,VALID,0
2009-05-19, 00:28:00,VALID,916.539,VALID,0,VALID,96.8988,VALID,-0.0169808,VALID,17.8895,VALID,136,VALID,0
2009-05-19, 00:29:00,VALID,916.533,VALID,0,VALID,96.6966,VALID,0,VALID,17.8958,VALID,136,VALID,0
2009-05-19, 00:30:00,VALID,916.525,VALID,0,VALID,96.5542,VALID,0,VALID,17.8891,VALID,136,VALID,0
2009-05-19, 00:31:00,VALID,916.532,VALID,0,VALID,96.4347,VALID,0,VALID,17.9025,VALID,139,VALID,0
2009-05-19, 00:32:00,VALID,916.525,VALID,0,VALID,96.1791,VALID,-0.0679233,VALID,17.9516,VALID,144,VALID,0
2009-05-19, 00:33:00,VALID,916.521,VALID,0,VALID,95.8269,VALID,-0.0339617,VALID,18.0031,VALID,144,VALID,0
2009-05-19, 00:34:00,VALID,916.492,VALID,0,VALID,95.5395,VALID,-0.0509425,VALID,18.0522,VALID,136,VALID,0
2009-05-19, 00:35:00,VALID,916.487,VALID,0,VALID,95.2902,VALID,-0.0169808,VALID,18.0582,VALID,136,VALID,0
2009-05-19, 00:36:00,VALID,916.464,VALID,0,VALID,95.1732,VALID,-0.0849042,VALID,18.0742,VALID,136,VALID,0
2009-05-19, 00:37:00,VALID,916.45,VALID,0,VALID,95.1008,VALID,-0.0339617,VALID,18.0844,VALID,135,VALID,0
2009-05-19, 00:38:00,VALID,916.437,VALID,0,VALID,95.0957,VALID,-0.0509425,VALID,18.0742,VALID,136,VALID,0.00669643
2009-05-19, 00:39:00,VALID,916.414,VALID,0,VALID,95.1936,VALID,-0.0169808,VALID,18.0577,VALID,137,VALID,0.046131
2009-05-19, 00:40:00,VALID,916.391,VALID,0,VALID,95.2012,VALID,0,VALID,18.077,VALID,139,VALID,0
2009-05-19, 00:41:00,VALID,916.364,VALID,0,VALID,95.1656,VALID,0.0169808,VALID,18.0929,VALID,139,VALID,0
2009-05-19, 00:42:00,VALID,916.346,VALID,0,VALID,95.0245,VALID,0.0169808,VALID,18.0999,VALID,139,VALID,0
2009-05-19, 00:43:00,VALID,916.34,VALID,0,VALID,95.0041,VALID,0.0169808,VALID,18.0478,VALID,139,VALID,0
2009-05-19, 00:44:00,VALID,916.343,VALID,0,VALID,95.1542,VALID,0,VALID,18.0054,VALID,143,VALID,0
2009-05-19, 00:45:00,VALID,916.335,VALID,0,VALID,95.4441,VALID,0.0509425,VALID,18.0024,VALID,156,VALID,0
2009-05-19, 00:46:00,VALID,916.331,VALID,0,VALID,95.7505,VALID,-0.0169808,VALID,17.9954,VALID,154,VALID,0
2009-05-19, 00:47:00,VALID,916.33,VALID,0,VALID,96.1702,VALID,-0.0339617,VALID,17.9987,VALID,156,VALID,0
2009-05-19, 00:48:00,VALID,916.33,VALID,0,VALID,96.4296,VALID,0.0169808,VALID,18.0045,VALID,157,VALID,0.0896577
2009-05-19, 00:49:00,VALID,916.313,VALID,0,VALID,96.6623,VALID,0.0509425,VALID,17.9952,VALID,153,VALID,0
2009-05-19, 00:50:00,VALID,916.3,VALID,0,VALID,96.9179,VALID,0.0339617,VALID,17.9792,VALID,151,VALID,0
2009-05-19, 00:51:00,VALID,916.27,VALID,0,VALID,97.2078,VALID,0.0509425,VALID,17.953,VALID,149,VALID,0
2009-05-19, 00:52:00,VALID,916.259,VALID,0,VALID,97.4787,VALID,0.0339617,VALID,17.947,VALID,146,VALID,0.0545015
2009-05-19, 00:53:00,VALID,916.253,VALID,0,VALID,97.7279,VALID,0.0169808,VALID,17.9206,VALID,147,VALID,0.052782
2009-05-19, 00:54:00,VALID,916.256,VALID,0,VALID,97.9441,VALID,0,VALID,17.9023,VALID,153,VALID,0.131055
2009-05-19, 00:55:00,VALID,916.221,VALID,0,VALID,98.426,VALID,-0.0509425,VALID,17.9055,VALID,158,VALID,0.0877976
2009-05-19, 00:56:00,VALID,916.224,VALID,0,VALID,98.9919,VALID,-0.0679233,VALID,17.9252,VALID,149,VALID,0.0383185
2009-05-19, 00:57:00,VALID,916.2,VALID,0,VALID,99.1432,VALID,-0.0849042,VALID,17.919,VALID,151,VALID,0
2009-05-19, 00:58:00,VALID,916.182,VALID,0,VALID,99.4446,VALID,-0.0339617,VALID,17.9123,VALID,148,VALID,0
2009-05-19, 00:59:00,VALID,916.173,VALID,0,VALID,99.7116,VALID,-0.0169808,VALID,17.9055,VALID,151,VALID,0
2009-05-19, 01:00:00,VALID,916.138,VALID,0,VALID,99.955,VALID,-0.0509425,VALID,17.9088,VALID,146,VALID,0.122852
2009-05-19, 01:01:00,VALID,916.125,VALID,0,VALID,100,VALID,-0.0509425,VALID,17.9088,VALID,132,VALID,0.00320513
2009-05-19, 01:02:00,VALID,916.14,VALID,0,VALID,100,VALID,-0.0849042,VALID,17.8833,VALID,144,VALID,0.00186821
2009-05-19, 01:03:00,VALID,916.135,VALID,0,VALID,100,VALID,-0.0849042,VALID,17.8636,VALID,154,VALID,0.0748047
2009-05-19, 01:04:00,VALID,916.125,VALID,0,VALID,99.9853,VALID,-0.0849042,VALID,17.8439,VALID,154,VALID,0.115625
2009-05-19, 01:05:00,VALID,916.119,VALID,0,VALID,99.8756,VALID,-0.0509425,VALID,17.8569,VALID,153,VALID,0.000744048
2009-05-19, 01:06:00,VALID,916.09,VALID,0,VALID,99.7752,VALID,-0.0509425,VALID,17.8766,VALID,145,VALID,0.190905
2009-05-19, 01:07:00,VALID,916.075,VALID,0,VALID,99.5883,VALID,-0.0849042,VALID,17.8509,VALID,136,VALID,0.430246
2009-05-19, 01:08:00,VALID,916.039,VALID,0,VALID,99.4039,VALID,-0.101885,VALID,17.8085,VALID,135,VALID,0.0971236
2009-05-19, 01:09:00,VALID,916.026,VALID,0,VALID,99.3924,VALID,-0.0339617,VALID,17.7693,VALID,145,VALID,0.0931641
2009-05-19, 01:10:00,VALID,916.005,VALID,0,VALID,99.4077,VALID,-0.0339617,VALID,17.7466,VALID,154,VALID,0.00581395
2009-05-19, 01:11:00,VALID,915.997,VALID,0,VALID,99.3441,VALID,-0.0849042,VALID,17.7339,VALID,166,VALID,0.0665064
2009-05-19, 01:12:00,VALID,915.986,VALID,0,VALID,99.1445,VALID,-0.0849042,VALID,17.7279,VALID,150,VALID,0.00109012
2009-05-19, 01:13:00,VALID,915.965,VALID,0,VALID,98.9575,VALID,-0.0679233,VALID,17.7404,VALID,133,VALID,0.152521
2009-05-19, 01:14:00,VALID,915.948,VALID,0,VALID,98.6409,VALID,-0.0679233,VALID,17.7568,VALID,130,VALID,0.0856051
2009-05-19, 01:15:00,VALID,915.942,VALID,0,VALID,98.0814,VALID,-0.0509425,VALID,17.786,VALID,132,VALID,0.0530523
2009-05-19, 01:16:00,VALID,915.951,VALID,0,VALID,97.677,VALID,-0.0679233,VALID,17.8344,VALID,149,VALID,0
2009-05-19, 01:17:00,VALID,915.926,VALID,0,VALID,97.0984,VALID,-0.0509425,VALID,17.8606,VALID,137,VALID,0.00106534
2009-05-19, 01:18:00,VALID,915.933,VALID,0,VALID,96.7386,VALID,-0.0509425,VALID,17.9027,VALID,148,VALID,0
2009-05-19, 01:19:00,VALID,915.922,VALID,0,VALID,96.3457,VALID,-0.0339617,VALID,17.9248,VALID,146,VALID,0
2009-05-19, 01:20:00,VALID,915.914,VALID,0,VALID,96.0417,VALID,-0.0339617,VALID,17.9347,VALID,146,VALID,0
2009-05-19, 01:21:00,VALID,915.917,VALID,0,VALID,95.6768,VALID,-0.0679233,VALID,17.9445,VALID,146,VALID,0
2009-05-19, 01:22:00,VALID,915.89,VALID,0,VALID,95.1542,VALID,-0.0679233,VALID,17.9968,VALID,146,VALID,0
2009-05-19, 01:23:00,VALID,915.878,VALID,0,VALID,94.4154,VALID,-0.101885,VALID,18.0651,VALID,146,VALID,0
2009-05-19, 01:24:00,VALID,915.848,VALID,0,VALID,93.908,VALID,-0.0679233,VALID,18.1462,VALID,145,VALID,0
2009-05-19, 01:25:00,VALID,915.834,VALID,0,VALID,93.6753,VALID,-0.101885,VALID,18.1462,VALID,145,VALID,0
2009-05-19, 01:26:00,VALID,915.831,VALID,0,VALID,93.5265,VALID,-0.0849042,VALID,18.1233,VALID,145,VALID,0
2009-05-19, 01:27:00,VALID,915.834,VALID,0,VALID,93.5303,VALID,-0.0849042,VALID,18.1066,VALID,145,VALID,0
2009-05-19, 01:28:00,VALID,915.812,VALID,0,VALID,93.7122,VALID,-0.0849042,VALID,18.1203,VALID,144,VALID,0
2009-05-19, 01:29:00,VALID,915.808,VALID,0,VALID,93.9029,VALID,-0.0679233,VALID,18.1131,VALID,143,VALID,0
2009-05-19, 01:30:00,VALID,915.799,VALID,0,VALID,94.0301,VALID,-0.0679233,VALID,18.1066,VALID,143,VALID,0
2009-05-19, 01:31:00,VALID,915.79,VALID,0,VALID,94.2272,VALID,-0.0339617,VALID,18.0939,VALID,143,VALID,0
2009-05-19, 01:32:00,VALID,915.789,VALID,0,VALID,94.3721,VALID,-0.0849042,VALID,18.0779,VALID,143,VALID,0
2009-05-19, 01:33:00,VALID,915.78,VALID,0,VALID,94.5298,VALID,-0.0169808,VALID,18.0452,VALID,143,VALID,0
2009-05-19, 01:34:00,VALID,915.763,VALID,0,VALID,94.8032,VALID,-0.0849042,VALID,18.0517,VALID,143,VALID,0
2009-05-19, 01:35:00,VALID,915.751,VALID,0,VALID,94.9939,VALID,-0.0679233,VALID,18.101,VALID,142,VALID,0
2009-05-19, 01:36:00,VALID,915.75,VALID,0,VALID,94.985,VALID,-0.0849042,VALID,18.1163,VALID,131,VALID,0
2009-05-19, 01:37:00,VALID,915.749,VALID,0,VALID,95.0003,VALID,-0.0509425,VALID,18.1457,VALID,129,VALID,0
2009-05-19, 01:38:00,VALID,915.75,VALID,0,VALID,95.0346,VALID,-0.0339617,VALID,18.1615,VALID,129,VALID,0
2009-05-19, 01:39:00,VALID,915.76,VALID,0,VALID,95.0804,VALID,-0.0509425,VALID,18.136,VALID,129,VALID,0
2009-05-19, 01:40:00,VALID,915.77,VALID,0,VALID,95.116,VALID,-0.0509425,VALID,18.0742,VALID,129,VALID,0
2009-05-19, 01:41:00,VALID,915.795,VALID,0,VALID,95.1758,VALID,-0.0339617,VALID,18.0482,VALID,129,VALID,0
2009-05-19, 01:42:00,VALID,915.78,VALID,0,VALID,95.9082,VALID,-0.0339617,VALID,18.0577,VALID,129,VALID,0
2009-05-19, 01:43:00,VALID,915.773,VALID,0,VALID,96.8416,VALID,-0.0339617,VALID,18.1131,VALID,129,VALID,0
2009-05-19, 01:44:00,VALID,915.77,VALID,0,VALID,96.8073,VALID,-0.0509425,VALID,18.0448,VALID,129,VALID,0
2009-05-19, 01:45:00,VALID,915.76,VALID,0,VALID,97.1277,VALID,-0.0509425,VALID,18.0288,VALID,129,VALID,0
2009-05-19, 01:46:00,VALID,915.735,VALID,0,VALID,96.9586,VALID,-0.0169808,VALID,17.9866,VALID,129,VALID,0
2009-05-19, 01:47:00,VALID,915.739,VALID,0,VALID,97.5626,VALID,-0.0339617,VALID,17.9769,VALID,129,VALID,0
2009-05-19, 01:48:00,VALID,915.723,VALID,0,VALID,97.2917,VALID,-0.0169808,VALID,17.9058,VALID,129,VALID,0
2009-05-19, 01:49:00,VALID,915.726,VALID,0,VALID,97.7864,VALID,-0.0169808,VALID,17.8766,VALID,129,VALID,0
2009-05-19, 01:50:00,VALID,915.712,VALID,0,VALID,97.7877,VALID,0,VALID,17.8437,VALID,129,VALID,0
2009-05-19, 01:51:00,VALID,915.698,VALID,0,VALID,98.2391,VALID,0,VALID,17.8537,VALID,129,VALID,0
2009-05-19, 01:52:00,VALID,915.697,VALID,0,VALID,98.9881,VALID,-0.0509425,VALID,17.9181,VALID,129,VALID,0
2009-05-19, 01:53:00,VALID,915.672,VALID,0,VALID,99.8306,VALID,-0.0339617,VALID,18.0515,VALID,129,VALID,0
2009-05-19, 01:54:00,VALID,915.672,VALID,0,VALID,99.6752,VALID,-0.0339617,VALID,18.1585,VALID,129,VALID,0
2009-05-19, 01:55:00,VALID,915.666,VALID,0,VALID,99.6239,VALID,0,VALID,18.1228,VALID,129,VALID,0
2009-05-19, 01:56:00,VALID,915.669,VALID,0,VALID,100,VALID,-0.0169808,VALID,18.1812,VALID,129,VALID,0
2009-05-19, 01:57:00,VALID,915.664,VALID,0,VALID,100,VALID,-0.0169808,VALID,18.2201,VALID,129,VALID,0
2009-05-19, 01:58:00,VALID,915.67,VALID,0,VALID,99.999,VALID,-0.0169808,VALID,18.2071,VALID,129,VALID,0
2009-05-19, 01:59:00,VALID,915.654,VALID,0,VALID,99.9186,VALID,-0.0169808,VALID,18.2004,VALID,129,VALID,0
2009-05-19, 02:00:00,VALID,915.65,VALID,0,VALID,99.7828,VALID,0,VALID,18.1812,VALID,129,VALID,0
2009-05-19, 02:01:00,VALID,915.65,VALID,0,VALID,99.6251,VALID,-0.0169808,VALID,18.1325,VALID,129,VALID,0
2009-05-19, 02:02:00,VALID,915.661,VALID,0,VALID,99.6989,VALID,0.0169808,VALID,18.0897,VALID,129,VALID,0
2009-05-19, 02:03:00,VALID,915.648,VALID,0,VALID,99.6506,VALID,0.0169808,VALID,18.061,VALID,129,VALID,0
2009-05-19, 02:04:00,VALID,915.644,VALID,0,VALID,99.6925,VALID,0,VALID,18.0091,VALID,129,VALID,0
2009-05-19, 02:05:00,VALID,915.645,VALID,0,VALID,99.8922,VALID,0,VALID,17.9901,VALID,129,VALID,0
2009-05-19, 02:06:00,VALID,915.653,VALID,0,VALID,99.8502,VALID,0,VALID,17.9769,VALID,129,VALID,0
2009-05-19, 02:07:00,VALID,915.644,VALID,0,VALID,99.9275,VALID,-0.0169808,VALID,17.9736,VALID,129,VALID,0
2009-05-19, 02:08:00,VALID,915.632,VALID,0,VALID,99.8423,VALID,-0.0169808,VALID,17.9831,VALID,129,VALID,0
2009-05-19, 02:09:00,VALID,915.638,VALID,0,VALID,99.5806,VALID,-0.0339617,VALID,17.9542,VALID,129,VALID,0
2009-05-19, 02:10:00,VALID,915.646,VALID,0,VALID,99.47,VALID,0,VALID,17.9153,VALID,129,VALID,0
2009-05-19, 02:11:00,VALID,915.645,VALID,0,VALID,99.4369,VALID,0,VALID,17.8761,VALID,129,VALID,0
2009-05-19, 02:12:00,VALID,915.648,VALID,0,VALID,99.3759,VALID,-0.0169808,VALID,17.8437,VALID,129,VALID,0
2009-05-19, 02:13:00,VALID,915.639,VALID,0,VALID,99.3644,VALID,-0.0169808,VALID,17.805,VALID,129,VALID,0
2009-05-19, 02:14:00,VALID,915.645,VALID,0,VALID,99.5005,VALID,0,VALID,17.7823,VALID,129,VALID,0
2009-05-19, 02:15:00,VALID,915.636,VALID,0,VALID,99.6099,VALID,-0.0339617,VALID,17.7661,VALID,129,VALID,0
2009-05-19, 02:16:00,VALID,915.627,VALID,0,VALID,99.7358,VALID,0,VALID,17.7499,VALID,129,VALID,0
2009-05-19, 02:17:00,VALID,915.629,VALID,0,VALID,99.7294,VALID,-0.0849042,VALID,17.7207,VALID,129,VALID,0
2009-05-19, 02:18:00,VALID,915.646,VALID,0,VALID,99.8726,VALID,-0.0679233,VALID,17.6982,VALID,129,VALID,0
2009-05-19, 02:19:00,VALID,915.629,VALID,0,VALID,99.9542,VALID,-0.0509425,VALID,17.7012,VALID,129,VALID,0
2009-05-19, 02:20:00,VALID,915.619,VALID,0,VALID,99.9891,VALID,-0.0339617,VALID,17.7077,VALID,124,VALID,0
2009-05-19, 02:21:00,VALID,915.625,VALID,0,VALID,100,VALID,-0.0169808,VALID,17.7172,VALID,121,VALID,0
2009-05-19, 02:22:00,VALID,915.609,VALID,0,VALID,100,VALID,-0.0509425,VALID,17.7239,VALID,122,VALID,0
2009-05-19, 02:23:00,VALID,915.592,VALID,0,VALID,100,VALID,-0.0339617,VALID,17.8247,VALID,122,VALID,0
2009-05-19, 02:24:00,VALID,915.554,VALID,0,VALID,99.8271,VALID,-0.0509425,VALID,17.8147,VALID,122,VALID,0
2009-05-19, 02:25:00,VALID,915.54,VALID,0,VALID,99.6302,VALID,-0.0169808,VALID,17.7726,VALID,122,VALID,0
2009-05-19, 02:26:00,VALID,915.536,VALID,0,VALID,99.9112,VALID,-0.0169808,VALID,17.7823,VALID,122,VALID,0
2009-05-19, 02:27:00,VALID,915.514,VALID,0,VALID,100,VALID,0,VALID,17.8439,VALID,122,VALID,0
2009-05-19, 02:28:00,VALID,915.491,VALID,0,VALID,99.8382,VALID,0,VALID,17.9023,VALID,122,VALID,0
2009-05-19, 02:29:00,VALID,915.503,VALID,0,VALID,99.8688,VALID,-0.0169808,VALID,17.9347,VALID,124,VALID,0
2009-05-19, 02:30:00,VALID,915.513,VALID,0,VALID,99.0504,VALID,-0.0339617,VALID,17.8699,VALID,226,VALID,0
2009-05-19, 02:31:00,VALID,915.491,VALID,0,VALID,99.8795,VALID,-0.0169808,VALID,17.8861,VALID,227,VALID,0
2009-05-19, 02:32:00,VALID,915.468,VALID,0,VALID,99.4764,VALID,-0.0169808,VALID,17.9282,VALID,81,VALID,0
2009-05-19, 02:33:00,VALID,915.481,VALID,0,VALID,99.7815,VALID,-0.0679233,VALID,18.0936,VALID,74,VALID,0
2009-05-19, 02:34:00,VALID,915.509,VALID,0,VALID,98.2632,VALID,-0.0509425,VALID,18.1652,VALID,20,VALID,0
2009-05-19, 02:35:00,VALID,915.517,VALID,0,VALID,98.365,VALID,-0.0679233,VALID,18.1001,VALID,297,VALID,0
2009-05-19, 02:36:00,VALID,915.51,VALID,0,VALID,98.5443,VALID,-0.0339617,VALID,18.1031,VALID,297,VALID,0
2009-05-19, 02:37:00,VALID,915.493,VALID,0,VALID,98.3243,VALID,-0.0169808,VALID,18.1358,VALID,338,VALID,0
2009-05-19, 02:38:00,VALID,915.494,VALID,0,VALID,98.0433,VALID,-0.0339617,VALID,18.2947,VALID,78,VALID,0
2009-05-19, 02:39:00,VALID,915.487,VALID,0,VALID,97.3337,VALID,-0.0339617,VALID,18.3985,VALID,78,VALID,0
2009-05-19, 02:40:00,VALID,915.491,VALID,0,VALID,96.5809,VALID,-0.0339617,VALID,18.3888,VALID,78,VALID,0
2009-05-19, 02:41:00,VALID,915.469,VALID,0,VALID,96.3965,VALID,-0.0509425,VALID,18.3336,VALID,78,VALID,0
2009-05-19, 02:42:00,VALID,915.462,VALID,0,VALID,96.3927,VALID,-0.0339617,VALID,18.2979,VALID,78,VALID,0
2009-05-19, 02:43:00,VALID,915.454,VALID,0,VALID,96.4385,VALID,0,VALID,18.2461,VALID,78,VALID,0
2009-05-19, 02:44:00,VALID,915.433,VALID,0,VALID,96.5631,VALID,-0.0169808,VALID,18.1939,VALID,78,VALID,0
2009-05-19, 02:45:00,VALID,915.406,VALID,0,VALID,96.3686,VALID,-0.0509425,VALID,18.1161,VALID,141,VALID,0
2009-05-19, 02:46:00,VALID,915.386,VALID,0,VALID,96.6559,VALID,-0.0509425,VALID,18.0123,VALID,191,VALID,0
2009-05-19, 02:47:00,VALID,915.372,VALID,0,VALID,97.2078,VALID,0,VALID,17.9607,VALID,189,VALID,0
2009-05-19, 02:48:00,VALID,915.353,VALID,0,VALID,97.4087,VALID,-0.0339617,VALID,17.9021,VALID,89,VALID,0
2009-05-19, 02:49:00,VALID,915.359,VALID,0,VALID,97.4278,VALID,0,VALID,17.8178,VALID,80,VALID,0
2009-05-19, 02:50:00,VALID,915.367,VALID,0,VALID,97.7521,VALID,0,VALID,17.6999,VALID,80,VALID,0
2009-05-19, 02:51:00,VALID,915.353,VALID,0,VALID,98.5087,VALID,-0.0169808,VALID,17.7138,VALID,80,VALID,0
2009-05-19, 02:52:00,VALID,915.348,VALID,0,VALID,98.7477,VALID,-0.0339617,VALID,17.7203,VALID,80,VALID,0
2009-05-19, 02:53:00,VALID,915.349,VALID,0,VALID,98.9766,VALID,-0.0169808,VALID,17.7203,VALID,91,VALID,0
2009-05-19, 02:54:00,VALID,915.362,VALID,0,VALID,99.6773,VALID,-0.0169808,VALID,17.837,VALID,108,VALID,0
2009-05-19, 02:55:00,VALID,915.358,VALID,0,VALID,99.3899,VALID,-0.0169808,VALID,17.9213,VALID,109,VALID,0
2009-05-19, 02:56:00,VALID,915.37,VALID,0,VALID,99.0211,VALID,-0.0339617,VALID,18.0475,VALID,108,VALID,0
2009-05-19, 02:57:00,VALID,915.378,VALID,0,VALID,98.056,VALID,-0.0509425,VALID,18.1777,VALID,90,VALID,0
2009-05-19, 02:58:00,VALID,915.393,VALID,0,VALID,97.0832,VALID,0,VALID,18.1027,VALID,176,VALID,0
2009-05-19, 02:59:00,VALID,915.386,VALID,0,VALID,97.3935,VALID,0,VALID,18.0281,VALID,200,VALID,0
2009-05-19, 03:00:00,VALID,915.351,VALID,0,VALID,98.1908,VALID,-0.0169808,VALID,18.0575,VALID,132,VALID,0
2009-05-19, 03:01:00,VALID,915.324,VALID,0,VALID,98.0789,VALID,-0.0509425,VALID,18.1911,VALID,103,VALID,0
2009-05-19, 03:02:00,VALID,915.34,VALID,0,VALID,97.232,VALID,-0.0849042,VALID,18.3626,VALID,100,VALID,0
2009-05-19, 03:03:00,VALID,915.346,VALID,0,VALID,96.6038,VALID,-0.0509425,VALID,18.3987,VALID,108,VALID,0
2009-05-19, 03:04:00,VALID,915.346,VALID,0,VALID,96.3813,VALID,-0.0509425,VALID,18.4342,VALID,129,VALID,0
2009-05-19, 03:05:00,VALID,915.35,VALID,0,VALID,96.202,VALID,-0.0849042,VALID,18.3985,VALID,152,VALID,0
2009-05-19, 03:06:00,VALID,915.346,VALID,0,VALID,96.422,VALID,-0.0169808,VALID,18.3665,VALID,133,VALID,0
2009-05-19, 03:07:00,VALID,915.329,VALID,0,VALID,96.5936,VALID,-0.0509425,VALID,18.3241,VALID,142,VALID,0
2009-05-19, 03:08:00,VALID,915.327,VALID,0,VALID,96.7157,VALID,-0.0169808,VALID,18.2463,VALID,144,VALID,0
2009-05-19, 03:09:00,VALID,915.303,VALID,0,VALID,96.923,VALID,-0.0339617,VALID,18.1423,VALID,141,VALID,0
2009-05-19, 03:10:00,VALID,915.3,VALID,0,VALID,97.4227,VALID,-0.0679233,VALID,18.042,VALID,147,VALID,0
2009-05-19, 03:11:00,VALID,915.285,VALID,0,VALID,97.9555,VALID,-0.0679233,VALID,17.9509,VALID,140,VALID,0
2009-05-19, 03:12:00,VALID,915.28,VALID,0,VALID,98.7757,VALID,-0.0509425,VALID,17.9736,VALID,133,VALID,0.362464
2009-05-19, 03:13:00,VALID,915.28,VALID,0,VALID,98.5646,VALID,-0.0509425,VALID,17.9801,VALID,126,VALID,0.0366319
2009-05-19, 03:14:00,VALID,915.281,VALID,0,VALID,98.4743,VALID,-0.0339617,VALID,17.9153,VALID,140,VALID,0
2009-05-19, 03:15:00,VALID,915.273,VALID,0,VALID,98.8406,VALID,-0.0339617,VALID,17.9025,VALID,131,VALID,0
2009-05-19, 03:16:00,VALID,915.274,VALID,0,VALID,98.9855,VALID,-0.0679233,VALID,17.8923,VALID,130,VALID,0
2009-05-19, 03:17:00,VALID,915.265,VALID,0,VALID,99.0911,VALID,-0.0169808,VALID,17.8736,VALID,153,VALID,0
2009-05-19, 03:18:00,VALID,915.263,VALID,0,VALID,99.4954,VALID,-0.0849042,VALID,17.9023,VALID,146,VALID,0
2009-05-19, 03:19:00,VALID,915.258,VALID,0,VALID,99.3657,VALID,-0.0679233,VALID,17.9347,VALID,138,VALID,0
2009-05-19, 03:20:00,VALID,915.237,VALID,0,VALID,99.2564,VALID,-0.0509425,VALID,17.9187,VALID,109,VALID,0
2009-05-19, 03:21:00,VALID,915.223,VALID,0,VALID,99.8418,VALID,-0.0679233,VALID,17.9736,VALID,123,VALID,0.272675
2009-05-19, 03:22:00,VALID,915.224,VALID,0,VALID,99.8115,VALID,-0.0339617,VALID,18.2201,VALID,139,VALID,0.0285823
2009-05-19, 03:23:00,VALID,915.226,VALID,0,VALID,98.7325,VALID,-0.0679233,VALID,18.3985,VALID,135,VALID,0
2009-05-19, 03:24:00,VALID,915.227,VALID,0,VALID,97.9822,VALID,-0.0679233,VALID,18.4052,VALID,135,VALID,0
2009-05-19, 03:25:00,VALID,915.219,VALID,0,VALID,97.5028,VALID,-0.0849042,VALID,18.3371,VALID,135,VALID,0.0464744
2009-05-19, 03:26:00,VALID,915.231,VALID,0,VALID,97.4787,VALID,-0.0679233,VALID,18.2722,VALID,135,VALID,0
2009-05-19, 03:27:00,VALID,915.227,VALID,0,VALID,97.5524,VALID,-0.0509425,VALID,18.2104,VALID,132,VALID,0
2009-05-19, 03:28:00,VALID,915.211,VALID,0,VALID,97.7826,VALID,-0.0849042,VALID,18.1812,VALID,116,VALID,0
2009-05-19, 03:29:00,VALID,915.217,VALID,0,VALID,98.0458,VALID,-0.0679233,VALID,18.24,VALID,114,VALID,0
2009-05-19, 03:30:00,VALID,915.215,VALID,0,VALID,97.7521,VALID,-0.0849042,VALID,18.3274,VALID,114,VALID,0
2009-05-19, 03:31:00,VALID,915.231,VALID,0,VALID,97.2676,VALID,-0.0679233,VALID,18.3531,VALID,114,VALID,0
2009-05-19, 03:32:00,VALID,915.241,VALID,0,VALID,96.8759,VALID,-0.0169808,VALID,18.2882,VALID,114,VALID,0
2009-05-19, 03:33:00,VALID,915.245,VALID,0,VALID,97.0489,VALID,-0.0169808,VALID,18.2593,VALID,114,VALID,0
2009-05-19, 03:34:00,VALID,915.24,VALID,0,VALID,97.1315,VALID,-0.0679233,VALID,18.2363,VALID,114,VALID,0
2009-05-19, 03:35:00,VALID,915.23,VALID,0,VALID,97.2383,VALID,-0.0849042,VALID,18.2106,VALID,114,VALID,0
2009-05-19, 03:36:00,VALID,915.237,VALID,0,VALID,97.2587,VALID,-0.0679233,VALID,18.1587,VALID,114,VALID,0
2009-05-19, 03:37:00,VALID,915.238,VALID,0,VALID,97.3515,VALID,-0.0509425,VALID,18.0969,VALID,114,VALID,0
2009-05-19, 03:38:00,VALID,915.259,VALID,0,VALID,97.5206,VALID,-0.0339617,VALID,18.0679,VALID,114,VALID,0
2009-05-19, 03:39:00,VALID,915.258,VALID,0,VALID,97.6058,VALID,-0.0509425,VALID,18.0677,VALID,114,VALID,0
2009-05-19, 03:40:00,VALID,915.252,VALID,0,VALID,97.4774,VALID,-0.0849042,VALID,18.0742,VALID,114,VALID,0
2009-05-19, 03:41:00,VALID,915.238,VALID,0,VALID,97.3299,VALID,-0.101885,VALID,18.0292,VALID,114,VALID,0
2009-05-19, 03:42:00,VALID,915.245,VALID,0,VALID,97.4609,VALID,-0.135847,VALID,17.9676,VALID,114,VALID,0